[[{"header":{"parameterUnit":"m.s-1","parameterCategory":1,"la1":30.2992,"la2":30.254,"lo1":-89.0895,"lo2":-89.0443,"dy":0.0025,"dx":0.0025,"nx":19,"ny":19,"refTime":"2026-04-15T21:00:00:Z","depth":0,"parameterNumber":2,"parameterNumberName":"U-component_of_WINDS"},"data":[0,0,0,-0.4299,-0.43,-0.4378,-0.4379,-0.448,-0.4481,0,0,0,0,0,0,0,0,0,0,0,-0.4274,-0.4274,-0.4299,-0.4301,-0.4378,-0.4379,-0.448,-0.4481,0,0,0,0,0,0,0,0,0,0,0,-0.4274,-0.4274,-0.4275,-0.4301,-0.4378,-0.4379,-0.448,-0.4421,0,0,0,0,0,0,0,0,0,0,-0.4346,-0.432,-0.4274,-0.4275,-0.4301,-0.4378,-0.4379,-0.4418,-0.4425,-0.4445,0,-0.4459,0,-0.4472,-0.4488,-0.4488,0,0,0,-0.4303,-0.4314,-0.4337,-0.4275,-0.4302,-0.4378,-0.4344,-0.4422,-0.4429,-0.4454,-0.4461,-0.4465,-0.4473,-0.4488,-0.4489,-0.4591,-0.4591,0,0,-0.4299,-0.4287,-0.4332,-0.4341,-0.4326,-0.4341,-0.4346,-0.4426,-0.4435,-0.4461,-0.4467,-0.4475,-0.4489,-0.449,-0.459,-0.4591,0,0,0,-0.4285,-0.4284,-0.4305,-0.4337,-0.4351,-0.4344,-0.4349,-0.4431,-0.4439,-0.4468,-0.4476,-0.449,-0.4491,-0.459,-0.459,-0.4597,0,0,0,-0.4282,-0.4276,-0.4303,-0.4297,-0.4349,-0.4391,-0.4352,-0.4433,-0.4443,-0.4476,-0.449,-0.4492,-0.4589,-0.459,-0.4596,-0.4603,0,0,0,-0.427,-0.4275,-0.4285,-0.4296,-0.4329,-0.439,-0.4402,-0.4435,-0.4447,-0.4488,-0.4492,-0.4589,-0.459,-0.4595,-0.4601,-0.4627,0,0,0,-0.4254,-0.429,-0.4285,-0.433,-0.4328,-0.4392,-0.4402,-0.4451,-0.4487,-0.449,-0.4589,-0.459,-0.4595,-0.46,-0.4626,-0.4646,-0.4654,0,0,-0.4294,-0.4295,-0.4322,-0.4319,-0.4382,-0.4382,-0.4447,-0.4491,-0.4507,-0.4563,-0.4565,-0.4596,-0.4601,-0.4626,-0.4697,-0.4703,0,0,0,-0.4331,-0.4351,-0.437,-0.4402,-0.4435,-0.4466,-0.4501,-0.4518,-0.4566,-0.4532,-0.4613,-0.4616,-0.4631,-0.4642,-0.4647,-0.4662,-0.4594,-0.4594,-0.4594,-0.4373,-0.4389,-0.4436,-0.4462,-0.4494,-0.453,-0.4559,-0.4589,-0.4597,-0.4616,-0.4633,-0.4673,-0.4685,-0.4689,-0.4704,-0.4645,-0.4645,-0.4645,-0.4645,-0.4434,-0.4465,-0.4475,-0.4524,-0.4543,-0.4585,-0.4623,-0.4628,-0.4673,-0.4662,-0.4676,-0.4663,-0.4694,-0.4709,-0.4645,-0.4645,-0.4645,-0.4645,-0.4645,-0.4464,-0.4482,-0.45,-0.455,-0.4587,-0.4613,-0.4656,-0.4671,-0.4687,-0.4701,-0.4722,-0.4722,-0.4725,-0.471,-0.471,-0.471,-0.471,-0.471,-0.4711,-0.4487,-0.4508,-0.454,-0.4579,-0.4603,-0.4637,-0.4675,-0.47,-0.4733,-0.4741,-0.4742,-0.475,-0.4693,-0.468,-0.4713,-0.4712,-0.4712,-0.4712,-0.4712,-0.4545,-0.4535,-0.4584,-0.4607,-0.4656,-0.4693,-0.4713,-0.4763,-0.4786,-0.4807,-0.4813,-0.4768,-0.4771,-0.4767,-0.4756,-0.4807,-0.4807,-0.4807,-0.4807,-0.4571,-0.4573,-0.4628,-0.4665,-0.4703,-0.4726,-0.4786,-0.4817,-0.4849,-0.4865,-0.486,-0.4846,-0.4842,-0.4848,-0.4842,-0.4832,-0.4902,-0.4902,-0.4902,-0.4608,-0.4615,-0.466,-0.4688,-0.4728,-0.4763,-0.482,-0.4866,-0.49,-0.4906,-0.4879,-0.4875,-0.4853,-0.4845,-0.485,-0.4841,-0.4823,0,0]},{"header":{"parameterUnit":"m.s-1","parameterCategory":1,"la1":30.2992,"la2":30.254,"lo1":-89.0895,"lo2":-89.0443,"dy":0.0025,"dx":0.0025,"nx":19,"ny":19,"refTime":"2026-04-15T21:00:00:Z","depth":0,"parameterNumber":3,"parameterNumberName":"V-component_of_WINDS"},"data":[0,0,0,3.6621,3.6621,3.6601,3.6601,3.6594,3.6594,0,0,0,0,0,0,0,0,0,0,0,3.6639,3.664,3.6621,3.6621,3.6601,3.6601,3.6594,3.6594,0,0,0,0,0,0,0,0,0,0,0,3.6639,3.664,3.664,3.6621,3.6602,3.6601,3.6594,3.6602,0,0,0,0,0,0,0,0,0,0,3.6618,3.6647,3.664,3.664,3.6621,3.6602,3.6601,3.6602,3.6602,3.6611,0,3.6624,0,3.6609,3.6595,3.6595,0,0,0,3.6612,3.6648,3.6631,3.664,3.6621,3.6602,3.6608,3.6602,3.6601,3.6611,3.6623,3.6622,3.6609,3.6595,3.6595,3.668,3.668,0,0,3.6613,3.6642,3.6632,3.6632,3.6637,3.6609,3.6607,3.6601,3.6617,3.6623,3.6622,3.6609,3.6595,3.6595,3.6679,3.668,0,0,0,3.6623,3.6644,3.6627,3.6633,3.6628,3.6608,3.6607,3.6617,3.6609,3.6622,3.6609,3.6595,3.6595,3.6678,3.6679,3.6747,0,0,0,3.6623,3.6649,3.6628,3.6646,3.6628,3.6622,3.6623,3.661,3.6608,3.6609,3.6595,3.6595,3.6677,3.6679,3.6743,3.6774,0,0,0,3.6637,3.665,3.6652,3.6647,3.664,3.6622,3.6613,3.6609,3.66,3.6595,3.6595,3.6676,3.6678,3.674,3.6768,3.6803,0,0,0,3.666,3.6714,3.6653,3.6708,3.664,3.6664,3.6613,3.663,3.6633,3.6595,3.6677,3.6679,3.6739,3.6765,3.6799,3.6836,3.6855,0,0,3.6744,3.6725,3.6755,3.67,3.6742,3.6665,3.6717,3.6693,3.6666,3.6676,3.6678,3.6744,3.6768,3.6802,3.6952,3.6967,0,0,0,3.6791,3.6813,3.6817,3.6822,3.6805,3.6791,3.6756,3.6747,3.6754,3.6678,3.6766,3.6779,3.6798,3.6814,3.6827,3.684,3.6688,3.6688,3.6688,3.6952,3.6913,3.6959,3.6918,3.6923,3.6885,3.6885,3.6865,3.6827,3.6848,3.6851,3.6946,3.6966,3.6976,3.699,3.6868,3.6869,3.6869,3.6869,3.707,3.7093,3.7039,3.7063,3.7022,3.7042,3.7007,3.6978,3.699,3.6942,3.6956,3.6906,3.6993,3.7004,3.6874,3.6873,3.6872,3.6872,3.6871,3.7169,3.7174,3.7161,3.7162,3.7167,3.7123,3.7136,3.7098,3.7063,3.7078,3.7074,3.7073,3.7066,3.7079,3.7079,3.708,3.708,3.708,3.708,3.7277,3.7261,3.7277,3.7261,3.7257,3.7248,3.7209,3.7204,3.7189,3.716,3.716,3.7118,3.701,3.6982,3.7085,3.7084,3.7084,3.7083,3.7083,3.7409,3.7373,3.7397,3.7394,3.7371,3.7376,3.7328,3.7321,3.7311,3.7318,3.7272,3.7199,3.7177,3.7166,3.7143,3.7282,3.7282,3.7282,3.7282,3.7492,3.7477,3.7492,3.7488,3.748,3.7438,3.7464,3.7434,3.7397,3.7388,3.7362,3.7329,3.732,3.7303,3.7289,3.7267,3.7434,3.7434,3.7434,3.7569,3.7552,3.7582,3.7545,3.7524,3.7506,3.7529,3.7525,3.7475,3.744,3.7379,3.7373,3.7319,3.7303,3.7266,3.7246,3.7204,0,0]}]]